FW1564 Weather Reports


time (UTC)temp
C
wind
direction
speed
KPH
gust
KPH
rain 1hr
cm
rain 24hr
cm
rain mn
cm
humidity
%
barometer
mb
20260510140443 16 146 9.7 20.9 0.00 0.00 0.00 59 1014.8
20260510135443 17 125 6.4 14.5 0.00 0.00 0.00 57 1014.9
20260510134443 17 120 11.3 17.7 0.00 0.00 0.00 56 1014.7
20260510133443 17 119 12.9 22.5 0.00 0.00 0.00 54 1014.8
20260510132935 18 214 4.8 16.1 0.00 0.00 0.00 52 1014.8
20260510131908 17 213 6.4 20.9 0.00 0.00 0.00 53 1014.9
20260510130430 17 134 8.0 22.5 0.00 0.00 0.00 52 1014.7
20260510125431 17 176 6.4 22.5 0.00 0.00 0.00 52 1014.9
20260510124432 17 137 11.3 20.9 0.00 0.00 0.00 50 1015.2
20260510123431 17 255 6.4 20.9 0.00 0.00 0.00 51 1015.1
20260510122910 17 290 1.6 17.7 0.00 0.00 0.00 51 1015.1
20260510121431 17 271 3.2 20.9 0.00 0.00 0.00 50 1015.2
20260510120431 17 147 11.3 17.7 0.00 0.00 0.00 51 1015.1
20260510115431 17 52 4.8 12.9 0.00 0.00 0.00 53 1015.4
20260510114836 17 210 6.4 14.5 0.00 0.00 0.00 51 1015.3
20260510114504 17 337 4.8 11.3 0.00 0.00 0.00 52 1015.1
20260510112431 17 306 4.8 12.9 0.00 0.00 0.00 53 1015.5
20260510111431 17 160 6.4 20.9 0.00 0.00 0.00 57 1015.4
20260510110431 17 286 1.6 11.3 0.00 0.00 0.00 59 1015.6
20260510105431 16 329 0.0 11.3 0.00 0.00 0.00 63 1015.5
20260510104431 16 246 8.0 12.9 0.00 0.00 0.00 67 1015.7
20260510103431 15 343 3.2 11.3 0.00 0.00 0.00 75 1015.5
20260510102431 15 64 4.8 16.1 0.00 0.00 0.00 71 1015.3
20260510101430 16 142 4.8 14.5 0.00 0.00 0.00 62 1015.3
20260510100431 17 319 1.6 11.3 0.00 0.00 0.00 57 1015.3
20260510095431 16 228 3.2 14.5 0.00 0.00 0.00 58 1015.3
20260510094432 15 110 3.2 12.9 0.00 0.00 0.00 62 1015.1
20260510093431 15 199 4.8 16.1 0.00 0.00 0.00 64 1015.2
20260510092431 15 176 4.8 14.5 0.00 0.00 0.00 63 1014.9
20260510091431 15 244 8.0 17.7 0.00 0.00 0.00 65 1014.8
20260510090432 15 262 1.6 11.3 0.00 0.00 0.00 63 1014.9
20260510085431 15 86 4.8 11.3 0.00 0.00 0.00 64 1014.9
20260510084431 15 221 3.2 4.8 0.00 0.00 0.00 63 1014.6
20260510083432 13 74 3.2 6.4 0.00 0.00 0.00 66 1014.9
20260510082432 13 292 0.0 11.3 0.00 0.00 0.00 67 1014.8
20260510081431 14 339 0.0 4.8 0.00 0.00 0.00 62 1014.6
20260510080431 13 32 0.0 9.7 0.00 0.00 0.00 64 1014.7
20260510075432 13 352 1.6 6.4 0.00 0.00 0.00 66 1014.7
20260510074430 12 44 0.0 3.2 0.00 0.00 0.00 66 1014.5
20260510073431 11 304 0.0 6.4 0.00 0.00 0.00 70 1014.5
20260510072431 11 347 1.6 6.4 0.00 0.00 0.00 70 1014.4
20260510071432 11 325 3.2 4.8 0.00 0.00 0.00 71 1014.2
20260510070432 11 358 3.2 6.4 0.00 0.00 0.00 72 1014.2
20260510065906 10 343 3.2 9.7 0.00 0.00 0.00 74 1014.1
20260510064431 10 345 1.6 4.8 0.00 0.00 0.00 72 1014.3
20260510063432 10 342 1.6 6.4 0.00 0.00 0.00 72 1014.1
20260510062432 10 346 1.6 6.4 0.00 0.00 0.00 74 1014.0
20260510061431 10 349 3.2 4.8 0.00 0.00 0.00 72 1014.1
20260510060431 10 331 4.8 6.4 0.00 0.00 0.00 72 1013.7
20260510055910 10 339 3.2 9.7 0.00 0.00 0.00 70 1014.1
20260510054431 10 46 4.8 9.7 0.00 0.00 0.00 72 1013.7
20260510053919 10 356 1.6 6.4 0.00 0.00 0.00 69 1013.8
20260510052433 10 341 6.4 11.3 0.00 0.00 0.00 71 1013.8
20260510051433 10 338 6.4 11.3 0.00 0.00 0.00 70 1013.5
20260510050909 10 4 4.8 9.7 0.00 0.00 0.00 70 1013.7
20260510045434 10 342 6.4 11.3 0.00 0.00 0.00 70 1013.3
20260510044432 10 345 4.8 9.7 0.00 0.00 0.00 69 1013.6
20260510043432 10 341 4.8 9.7 0.00 0.00 0.00 68 1013.4
20260510042432 10 349 4.8 12.9 0.00 0.00 0.00 69 1013.3
20260510041431 10 339 4.8 9.7 0.00 0.00 0.00 65 1013.8
20260510040432 10 342 8.0 11.3 0.00 0.00 0.00 64 1013.3
20260510035431 10 339 4.8 11.3 0.00 0.00 0.00 64 1013.4
20260510034435 10 336 6.4 9.7 0.00 0.00 0.00 65 1013.3
20260510033431 10 343 1.6 6.4 0.00 0.00 0.00 65 1013.2
20260510032431 10 342 3.2 6.4 0.00 0.00 0.00 63 1013.3
20260510031430 10 332 8.0 9.7 0.00 0.00 0.00 63 1013.5
20260510030430 10 342 3.2 9.7 0.00 0.00 0.00 60 1013.3
20260510025431 10 322 3.2 11.3 0.00 0.00 0.00 60 1013.2
20260510024431 11 10 6.4 11.3 0.00 0.00 0.00 60 1013.3
20260510023431 11 347 3.2 9.7 0.00 0.00 0.00 58 1013.3
20260510022431 11 342 3.2 11.3 0.00 0.00 0.00 59 1013.4
20260510021431 11 308 1.6 9.7 0.00 0.00 0.00 59 1013.7
20260510020431 11 70 6.4 9.7 0.00 0.00 0.00 59 1013.7
20260510015431 11 352 8.0 9.7 0.00 0.00 0.00 63 1013.6
20260510014432 11 340 3.2 9.7 0.00 0.00 0.00 62 1013.7
20260510013431 11 342 6.4 9.7 0.00 0.00 0.00 66 1013.5
20260510012431 11 341 4.8 9.7 0.00 0.00 0.00 70 1013.7
20260510011431 11 339 3.2 6.4 0.00 0.00 0.00 69 1013.9
20260510010431 10 341 3.2 6.4 0.00 0.00 0.00 72 1013.8
20260510005431 11 13 6.4 6.4 0.00 0.00 0.00 70 1013.7
20260510004913 11 333 1.6 11.3 0.00 0.00 0.00 70 1013.9
20260510003431 11 260 0.0 4.8 0.00 0.00 0.00 69 1013.8
20260510002431 11 33 3.2 11.3 0.00 0.00 0.00 69 1014.0
20260510001430 11 326 3.2 6.4 0.00 0.00 0.00 73 1014.2
20260510000433 11 344 3.2 9.7 0.00 0.00 0.00 73 1014.2
20260509235430 11 350 6.4 14.5 0.00 0.00 0.00 74 1014.0
20260509234431 11 4 6.4 11.3 0.00 0.00 0.00 74 1014.2
20260509233431 11 325 6.4 6.4 0.00 0.00 0.00 75 1014.0
20260509232909 11 3 0.0 9.7 0.00 0.00 0.00 76 1014.1
20260509231909 11 295 0.0 6.4 0.00 0.00 0.00 75 1014.1
20260509230444 11 12 1.6 4.8 0.00 0.00 0.00 73 1013.9
20260509225431 11 338 3.2 6.4 0.00 0.00 0.00 72 1013.8
20260509224431 11 66 4.8 6.4 0.00 0.00 0.00 74 1013.9
20260509224343 11 338 3.2 4.8 0.00 0.00 0.00 75 1013.8
20260509222430 11 34 0.0 4.8 0.00 0.00 0.00 75 1014.0
20260509221432 11 324 0.0 4.8 0.00 0.00 0.00 77 1013.8
20260509220431 11 11 1.6 3.2 0.00 0.00 0.00 77 1014.0
20260509215431 12 341 6.4 6.4 0.00 0.00 0.00 76 1013.9
20260509214433 12 288 0.0 9.7 0.00 0.00 0.00 74 1013.8
20260509213431 11 339 4.8 11.3 0.00 0.00 0.00 79 1013.8
20260509212431 11 322 1.6 6.4 0.00 0.00 0.00 77 1013.9
20260509211431 11 336 6.4 9.7 0.00 0.00 0.00 78 1013.8
20260509210430 11 319 3.2 9.7 0.00 0.00 0.00 76 1013.6
20260509205431 11 342 4.8 6.4 0.00 0.00 0.00 77 1013.5
20260509204432 12 340 4.8 9.7 0.00 0.00 0.00 75 1013.1
20260509203919 12 354 1.6 6.4 0.00 0.00 0.00 75 1013.2
20260509202431 12 122 0.0 11.3 0.00 0.00 0.00 74 1012.8
20260509201913 13 325 0.0 9.7 0.00 0.00 0.00 72 1013.0
20260509200431 13 225 0.0 9.7 0.00 0.00 0.00 70 1012.8
20260509195431 12 76 3.2 4.8 0.00 0.00 0.00 74 1013.1
20260509194431 12 340 0.0 6.4 0.00 0.00 0.00 76 1012.8
20260509193431 13 335 1.6 3.2 0.00 0.00 0.00 75 1012.7
20260509192431 13 39 0.0 6.4 0.00 0.00 0.00 74 1012.5
20260509191432 13 285 0.0 6.4 0.00 0.00 0.00 72 1012.5
20260509190431 13 129 1.6 9.7 0.00 0.00 0.00 72 1012.6
20260509185911 13 230 9.7 14.5 0.00 0.00 0.00 72 1012.6
20260509184431 14 300 0.0 12.9 0.00 0.00 0.00 73 1012.4
20260509183431 14 61 4.8 9.7 0.00 0.00 0.00 74 1012.3
20260509182431 14 287 1.6 6.4 0.00 0.03 0.00 74 1012.4
20260509181431 15 135 3.2 11.3 0.00 0.10 0.00 72 1012.2
20260509180911 15 321 0.0 9.7 0.00 0.15 0.00 72 1012.2
20260509175918 15 267 1.6 12.9 0.00 0.15 0.00 72 1012.3
20260509174431 15 317 3.2 9.7 0.00 0.15 0.00 73 1012.2
20260509173430 15 134 4.8 9.7 0.00 0.15 0.00 72 1012.1
20260509172431 15 138 4.8 14.5 0.00 0.15 0.00 75 1012.1
20260509171432 15 83 3.2 17.7 0.00 0.15 0.00 73 1012.2
20260509170431 16 276 3.2 12.9 0.00 0.15 0.00 73 1012.0
20260509165431 16 132 3.2 9.7 0.00 0.15 0.00 73 1012.0
20260509164431 15 50 6.4 11.3 0.00 0.15 0.00 73 1011.9
20260509163431 16 262 1.6 9.7 0.00 0.15 0.00 76 1012.1
20260509162910 16 172 8.0 11.3 0.00 0.15 0.00 70 1012.1
20260509161916 15 114 4.8 14.5 0.00 0.15 0.00 78 1012.1
20260509160431 15 87 1.6 12.9 0.00 0.15 0.00 76 1012.0
20260509155917 17 168 3.2 16.1 0.00 0.15 0.00 69 1011.8
20260509153431 16 193 4.8 12.9 0.00 0.15 0.00 68 1011.6
20260509152431 16 108 3.2 17.7 0.00 0.15 0.00 69 1011.7
20260509151431 16 297 0.0 11.3 0.00 0.15 0.00 67 1011.8
20260509150918 17 241 9.7 16.1 0.00 0.15 0.00 63 1011.9
20260509145431 17 100 1.6 14.5 0.00 0.15 0.00 66 1011.8
20260509144906 16 51 3.2 27.4 0.00 0.15 0.00 67 1011.9
20260509143431 17 62 12.9 20.9 0.00 0.15 0.00 63 1011.7
20260509142431 16 89 4.8 20.9 0.00 0.15 0.00 69 1011.9
20260509141431 16 119 6.4 16.1 0.00 0.15 0.00 71 1011.9